User: anonymous   Login
Location: Marsån
(66.4167°N, 22.2833°E)
Time: 19:08:12
(UTC+00:00)
Language:

NOSS 0 Rocket - Orbit

View from above orbital plane
View from above orbital plane
View from above satellite
View from above satellite

Ground track
Ground track

The orbit data is extracted from the following two-line orbital elements,

1  5679U 71110B   24141.16700246  .00000140  00000-0  16753-3 0  9995
2  5679  69.9946 152.1459 0012505 356.5537   3.5475 13.85514401264352
Epoch (UTC): 20 May 2024 04:00:29
Eccentricity: 0.0012505
inclination: 69.9946°
perigee height: 935 km
apogee height: 953 km
right ascension of ascending node: 152.1459°
argument of perigee: 356.5537°
revolutions per day: 13.85514401
mean anomaly at epoch: 3.5475°
orbit number at epoch: 26435

The dashed part of the orbit path shows where the satellite is in the earth's shadow,  

DLR